Location: Unspecified
(42.0334°N, 93.6656°W)
Time: 16:14:38
(UTC-06:00)

Amateur Radio Satellites - All Passes

Search period start: 28 January 2015 15:44
Search period end: 29 January 2015 15:44
Location: Unspecified, 42.0334°N, 93.6656°W

Satellite Date Start Highest point End Downlink Frequencies (MHz)
Time Altitude Azimuth
ITUPSAT 1 28 Jan 15:46:34 15:47:09 10° 300° (WNW) 15:47:28 437.325
AUBIESAT-1 28 Jan 15:49:47 15:53:04 62° 106° (ESE) 15:56:27 437.475
CUTE-I 28 Jan 16:03:14 16:04:58 12° 58° (ENE) 16:06:59 437.470
STARS 28 Jan 16:10:20 16:14:11 29° 292° (WNW) 16:17:58 437.465
MOZHAYETS 4 28 Jan 16:11:18 16:14:30 19° 91° (E) 16:17:50
KKS-1 28 Jan 16:15:23 16:18:32 19° 295° (WNW) 16:21:33 437.445
DANDE 28 Jan 16:46:02 16:51:33 27° 276° (W) 16:55:51 436.750
M-CUBED/EXP-1 PRIME 28 Jan 16:51:33 16:53:56 18° 296° (WNW) 16:56:16 437.505
O/OREOS (USA 219) 28 Jan 17:14:17 17:18:32 40° 299° (WNW) 17:22:50 437.305
Cubesat XI-IV 28 Jan 17:18:56 17:24:05 55° 72° (ENE) 17:29:19 437.490
AO-7 28 Jan 17:20:41 17:26:34 19° 272° (W) 17:32:01 29.400- 29.500
RS-15 28 Jan 17:20:49 17:25:18 12° 262° (W) 17:28:37 29.354- 29.394
JAS-2 28 Jan 17:27:24 17:31:35 21° 267° (W) 17:35:27 435.910
CUTE-I 28 Jan 17:39:00 17:44:18 82° 76° (ENE) 17:49:41 437.470
MOZHAYETS 4 28 Jan 17:47:39 17:51:59 42° 288° (WNW) 17:56:16
STRAND 1 28 Jan 17:50:54 17:52:38 12° 87° (E) 17:54:42 437.568
CUBESAT XI-V 28 Jan 18:01:17 18:04:47 21° 92° (E) 18:08:26 437.345
YUBILEINY 28 Jan 18:02:38 18:06:43 15° 77° (ENE) 18:11:25 435.215
HO-68 28 Jan 18:13:26 18:16:55 15° 52° (NE) 18:20:45 435.675
PRISM 28 Jan 18:22:40 18:26:40 46° 99° (E) 18:30:41 437.425
BRITE-PL 28 Jan 18:25:30 18:26:28 11° 57° (ENE) 18:27:45 437.365/2234.400
SO-50 28 Jan 18:41:50 18:46:23 36° 48° (NE) 18:50:57 436.795
Cubesat XI-IV 28 Jan 19:00:47 19:04:37 19° 269° (W) 19:08:17 437.490
CUTE 1.7 + AOD 2 28 Jan 19:10:32 19:13:03 16° 66° (ENE) 19:15:44 437.475
CUTE-I 28 Jan 19:22:50 19:25:10 12° 273° (W) 19:27:11 437.470
STRAND 1 28 Jan 19:27:25 19:32:36 81° 285° (WNW) 19:37:45 437.568
CUBESAT XI-V 28 Jan 19:38:02 19:42:26 40° 289° (WNW) 19:46:48 437.345
SEEDS 28 Jan 19:40:56 19:44:32 27° 69° (ENE) 19:48:11 437.485
CUBEBUG 2 28 Jan 19:49:00 19:50:04 11° 61° (ENE) 19:51:25 437.445
YUBILEINY 28 Jan 19:53:38 20:02:18 80° 96° (E) 20:11:02 435.215
HO-68 28 Jan 19:56:28 20:03:34 71° 70° (ENE) 20:10:42 435.675
GOMX 1 28 Jan 19:57:54 20:02:47 52° 72° (ENE) 20:08:01 467.674
BRITE-PL 28 Jan 19:59:01 20:04:00 74° 75° (ENE) 20:09:28 437.365/2234.400
PRISM 28 Jan 19:59:16 20:01:53 16° 295° (WNW) 20:04:21 437.425
DX 1 28 Jan 20:05:18 20:07:06 13° 63° (ENE) 20:09:07 434.975-435.025
CINEMA 3 28 Jan 20:05:53 20:09:58 27° 68° (ENE) 20:14:13 145.822/145.860
COMPASS 1 28 Jan 20:07:57 20:11:58 45° 73° (ENE) 20:16:01 437.405
FUNcube-1 28 Jan 20:10:58 20:12:40 12° 62° (ENE) 20:14:37 145.935
DOVE 4 28 Jan 20:13:12 20:18:05 53° 73° (ENE) 20:23:14 437.250
CANX-2 28 Jan 20:20:01 20:24:20 85° 257° (WSW) 20:28:40 2200.000
SO-50 28 Jan 20:22:31 20:26:54 32° 245° (WSW) 20:31:12 436.795
UWE-3 28 Jan 20:27:41 20:31:12 22° 67° (ENE) 20:34:52 435.000/436.395/437.385
DELFI C3 28 Jan 20:34:03 20:37:35 29° 71° (ENE) 20:41:11 145.870
AAUSAT CUBESAT 2 28 Jan 20:34:32 20:38:45 79° 76° (ENE) 20:42:59 437.432
Oscar 11 28 Jan 20:43:33 20:47:44 48° 73° (ENE) 20:51:58 145.826/435.025
CUTE 1.7 + AOD 2 28 Jan 20:44:28 20:48:39 49° 261° (W) 20:52:50 437.475
VELOX 1 28 Jan 20:54:29 20:57:05 16° 64° (ENE) 20:59:51 145.980
STRAND 1 28 Jan 21:09:24 21:11:04 11° 301° (WNW) 21:12:27 437.568
SEEDS 28 Jan 21:16:43 21:20:21 26° 266° (W) 21:23:55 437.485
UKube-1 28 Jan 21:18:27 21:22:45 71° 74° (ENE) 21:27:05 .
CUBEBUG 2 28 Jan 21:21:20 21:26:06 87° 76° (ENE) 21:30:56 437.445
50 SAT 28 Jan 21:22:13 21:25:35 25° 69° (ENE) 21:29:03 437.505
ZACube-1 28 Jan 21:31:41 21:36:17 80° 76° (ENE) 21:40:56 437.345
GOMX 1 28 Jan 21:37:34 21:41:20 20° 271° (W) 21:45:06 467.674
DX 1 28 Jan 21:38:33 21:42:53 67° 259° (W) 21:47:15 434.975-435.025
HUMSAT D 28 Jan 21:39:34 21:43:48 53° 74° (ENE) 21:48:04 437.325/437.525
BRITE-PL 28 Jan 21:40:36 21:43:20 14° 275° (W) 21:45:51 437.365/2234.400
CINEMA 3 28 Jan 21:42:28 21:47:02 36° 265° (W) 21:51:40 145.822/145.860
FUNcube-1 28 Jan 21:43:52 21:48:28 78° 258° (WSW) 21:53:06 145.935
COMPASS 1 28 Jan 21:45:19 21:47:59 16° 270° (W) 21:50:29 437.405
AIST 1 28 Jan 21:45:25 21:48:41 21° 71° (ENE) 21:52:05
HO-68 28 Jan 21:46:37 21:52:01 22° 270° (W) 21:57:09 435.675
DOVE 4 28 Jan 21:52:36 21:56:16 19° 271° (W) 21:59:53 437.250
YUBILEINY 28 Jan 21:53:39 22:00:19 23° 298° (WNW) 22:06:41 435.215
ISS 28 Jan 21:57:06 22:00:12 40° 139° (SE) 22:03:19 145.825
AISAT 28 Jan 22:00:13 22:04:39 77° 75° (ENE) 22:09:09 437.250
ANTELSAT 28 Jan 22:01:31 22:04:40 19° 91° (E) 22:07:54 437.575/2403.000
ESTCUBE 1 28 Jan 22:01:44 22:05:45 34° 70° (ENE) 22:09:50 437.505/2401.250
UWE-3 28 Jan 22:03:05 22:07:31 41° 263° (W) 22:11:59 435.000/436.395/437.385
TIGRISAT 28 Jan 22:09:22 22:12:52 23° 93° (E) 22:16:22 435.000
DELFI C3 28 Jan 22:09:38 22:12:54 22° 267° (W) 22:16:03 145.870
Oscar 11 28 Jan 22:21:36 22:24:16 15° 270° (W) 22:26:46 145.826/435.025
NANOSAT C BR1 28 Jan 22:26:19 22:29:32 21° 92° (E) 22:32:50 145.865
SPROUT 28 Jan 22:28:31 22:30:58 15° 65° (ENE) 22:33:34 437.525
VELOX 1 28 Jan 22:28:57 22:33:17 53° 260° (W) 22:37:40 145.980
CUBEBUG 1 28 Jan 22:38:53 22:43:14 78° 75° (ENE) 22:47:37 437.445
QB50P2 28 Jan 22:39:55 22:43:42 29° 95° (E) 22:47:29 145.880/145.840
QB50P1 28 Jan 22:49:17 22:53:18 37° 97° (E) 22:57:17 145.935-145.965
50 SAT 28 Jan 22:57:06 23:00:40 27° 265° (W) 23:04:11 437.505
UKube-1 28 Jan 22:58:35 22:59:30 10° 272° (W) 23:00:08 .
UNISAT 6 28 Jan 23:01:18 23:05:48 86° 103° (ESE) 23:10:10 437.425
POLYITAN 1 28 Jan 23:03:33 23:07:49 54° 100° (E) 23:12:02 437.675
BUGSAT 1 28 Jan 23:03:46 23:07:51 41° 98° (E) 23:11:54 437.445
TISAT 1 28 Jan 23:05:51 23:09:43 36° 71° (ENE) 23:13:39 437.305
ZACube-1 28 Jan 23:12:33 23:13:21 10° 274° (W) 23:13:50 437.345
HUMSAT D 28 Jan 23:17:34 23:19:59 14° 271° (W) 23:22:13 437.325/437.525
SWISSCUBE 28 Jan 23:19:48 23:20:26 10° 60° (ENE) 23:21:19 437.505
AIST 1 28 Jan 23:22:33 23:26:29 33° 268° (W) 23:30:22
POPSAT HIP 1 28 Jan 23:23:49 23:28:11 90° 276° (W) 23:32:29 437.405
DUCHIFAT 1 28 Jan 23:26:47 23:31:08 84° 284° (WNW) 23:35:25 145.980
ISS 28 Jan 23:33:48 23:36:46 30° 336° (NNW) 23:39:46 145.825
BEESAT 28 Jan 23:33:57 23:36:12 14° 62° (ENE) 23:38:39 436.000
ITUPSAT 1 28 Jan 23:37:18 23:39:44 14° 62° (ENE) 23:42:23 437.325
ANTELSAT 28 Jan 23:37:31 23:41:43 39° 289° (WNW) 23:45:45 437.575/2403.000
ESTCUBE 1 28 Jan 23:39:08 23:42:45 23° 267° (W) 23:46:17 437.505/2401.250
TIGRISAT 28 Jan 23:45:42 23:49:44 33° 290° (WNW) 23:53:38 435.000
NANOSAT C BR1 29 Jan 00:01:36 00:05:33 35° 289° (WNW) 00:09:26 145.865
SPROUT 29 Jan 00:02:28 00:06:41 52° 261° (W) 00:10:57 437.525
GONETS M04 29 Jan 00:03:05 00:08:55 21° 81° (E) 00:15:09
QB50P2 29 Jan 00:15:58 00:19:33 25° 292° (WNW) 00:23:00 145.880/145.840
QB50P1 29 Jan 00:25:44 00:28:59 21° 293° (WNW) 00:32:07 145.935-145.965
BUGSAT 1 29 Jan 00:40:02 00:43:05 19° 294° (WNW) 00:46:00 437.445
POLYITAN 1 29 Jan 00:40:51 00:43:22 15° 296° (WNW) 00:45:43 437.675
UNISAT 6 29 Jan 00:41:13 00:41:58 10° 299° (WNW) 00:42:27 437.425
TISAT 1 29 Jan 00:42:31 00:45:42 20° 268° (W) 00:48:47 437.305
SWISSCUBE 29 Jan 00:52:51 00:57:37 85° 78° (ENE) 01:02:24 437.505
BEESAT 29 Jan 01:08:47 01:13:32 73° 258° (WSW) 01:18:18 436.000
ISS 29 Jan 01:11:56 01:14:03 16° 356° (N) 01:16:09 145.825
ITUPSAT 1 29 Jan 01:12:25 01:17:09 68° 258° (WSW) 01:21:56 437.325
STARS 29 Jan 01:31:39 01:35:20 26° 68° (ENE) 01:39:05 437.465
KKS-1 29 Jan 01:36:28 01:40:42 44° 72° (ENE) 01:45:00 437.445
Oscar 19 29 Jan 01:40:02 01:45:09 62° 100° (E) 01:50:15 437.125/150
O/OREOS (USA 219) 29 Jan 01:44:22 01:48:44 42° 62° (ENE) 01:53:06 437.305
ITAMSAT 1 29 Jan 01:55:32 02:00:06 30° 95° (E) 02:04:44 435.822/435.867
GONETS M04 29 Jan 01:56:05 02:04:52 81° 279° (W) 02:13:39
M-CUBED/EXP-1 PRIME 29 Jan 02:05:31 02:09:21 43° 69° (ENE) 02:12:56 437.505
AIST 2 29 Jan 02:18:36 02:21:40 20° 112° (ESE) 02:24:51 435.215
BEESAT 2 29 Jan 02:23:38 02:27:38 52° 118° (ESE) 02:31:43 435.950
DANDE 29 Jan 02:33:55 02:36:32 12° 77° (ENE) 02:39:54 436.750
BEESAT 3 29 Jan 02:38:00 02:42:06 86° 125° (SE) 02:46:17 437.485
AUBIESAT-1 29 Jan 02:38:50 02:42:52 83° 252° (WSW) 02:46:36 437.475
ISS 29 Jan 02:48:48 02:51:26 21° 16° (NNE) 02:54:05 145.825
Gurwin Techsat 1B 29 Jan 02:49:59 02:55:18 68° 101° (E) 03:00:36 435.225
CUSAT 1 29 Jan 03:00:53 03:06:55 24° 84° (E) 03:13:23 437.405
STARS 29 Jan 03:07:48 03:11:45 30° 264° (W) 03:15:40 437.465
MOZHAYETS 4 29 Jan 03:14:05 03:17:21 20° 66° (ENE) 03:20:44
KKS-1 29 Jan 03:14:29 03:17:38 18° 269° (W) 03:20:38 437.445
HORYU 2 29 Jan 03:17:02 03:21:12 38° 98° (E) 03:25:21 437.375
RS-15 29 Jan 03:19:46 03:26:36 20° 102° (ESE) 03:34:06 29.354- 29.394
Oscar 19 29 Jan 03:20:38 03:24:04 18° 297° (WNW) 03:27:20 437.125/150
O/OREOS (USA 219) 29 Jan 03:24:30 03:27:54 20° 258° (WSW) 03:31:10 437.305
AO-7 29 Jan 03:26:11 03:32:59 28° 93° (E) 03:39:59 29.400- 29.500
ITAMSAT 1 29 Jan 03:34:55 03:39:38 34° 292° (WNW) 03:44:17 435.822/435.867
M-CUBED/EXP-1 PRIME 29 Jan 03:42:11 03:44:31 14° 262° (W) 03:46:37 437.505
AIST 2 29 Jan 03:55:57 04:00:01 43° 309° (NW) 04:04:09 435.215
GONETS M04 29 Jan 03:57:53 04:03:27 17° 303° (WNW) 04:08:33
BEESAT 2 29 Jan 04:03:08 04:06:11 19° 318° (NW) 04:09:12 435.950
PCSat 29 Jan 04:06:46 04:11:51 44° 113° (ESE) 04:17:00 145.827
DANDE 29 Jan 04:10:35 04:18:34 61° 94° (E) 04:27:06 436.750
BEESAT 3 29 Jan 04:18:40 04:20:53 14° 322° (NW) 04:22:59 437.485
ISS 29 Jan 04:24:59 04:28:18 89° 229° (SW) 04:31:37 145.825
Gurwin Techsat 1B 29 Jan 04:31:20 04:34:47 17° 298° (WNW) 04:38:02 435.225
JAS-2 29 Jan 04:32:36 04:37:57 42° 98° (E) 04:43:57 435.910
CUSAT 1 29 Jan 04:41:01 04:49:15 80° 281° (W) 04:57:42 437.405
MOZHAYETS 4 29 Jan 04:49:57 04:54:20 43° 262° (W) 04:58:42
HORYU 2 29 Jan 04:54:18 04:57:40 21° 294° (WNW) 05:00:55 437.375
CUBESAT XI-V 29 Jan 05:05:32 05:09:01 22° 67° (ENE) 05:12:37 437.345
STRAND 1 29 Jan 05:06:32 05:10:03 20° 64° (ENE) 05:13:45 437.568
PRISM 29 Jan 05:13:49 05:17:34 36° 71° (ENE) 05:21:22 437.425
AO-7 29 Jan 05:18:11 05:26:26 65° 293° (WNW) 05:34:35 29.400- 29.500
RS-15 29 Jan 05:26:37 05:37:33 86° 120° (ESE) 05:48:35 29.354- 29.394
Cubesat XI-IV 29 Jan 05:36:33 05:40:31 21° 91° (E) 05:44:38 437.490
PCSat 29 Jan 05:50:41 05:55:27 30° 312° (NW) 06:00:11 145.827
DANDE 29 Jan 05:55:02 06:02:34 35° 294° (WNW) 06:10:12 436.750
CUTE-I 29 Jan 05:56:05 06:00:49 32° 95° (E) 06:05:37 437.470
YUBILEINY 29 Jan 06:03:28 06:11:34 41° 71° (ENE) 06:19:48 435.215
ISS 29 Jan 06:03:35 06:04:24 11° 230° (SW) 06:05:04 145.825
JAS-2 29 Jan 06:18:08 06:23:00 30° 292° (WNW) 06:28:12 435.910
CUSAT 1 29 Jan 06:27:46 06:33:42 20° 301° (WNW) 06:39:14 437.405
CUBESAT XI-V 29 Jan 06:41:58 06:46:16 38° 263° (W) 06:50:35 437.345
STRAND 1 29 Jan 06:43:56 06:48:54 54° 260° (W) 06:53:56 437.568
PRISM 29 Jan 06:50:19 06:53:16 18° 268° (W) 06:56:06 437.425
AO-7 29 Jan 07:13:06 07:17:49 16° 313° (NW) 07:22:09 29.400- 29.500
Cubesat XI-IV 29 Jan 07:15:46 07:20:58 51° 289° (WNW) 07:26:09 437.490
HO-68 29 Jan 07:27:25 07:29:09 11° 84° (E) 07:31:29 435.675
CUTE-I 29 Jan 07:36:05 07:40:56 35° 292° (WNW) 07:45:43 437.470
RS-15 29 Jan 07:41:42 07:51:25 34° 328° (NNW) 08:01:11 29.354- 29.394
YUBILEINY 29 Jan 08:00:18 08:08:33 46° 271° (W) 08:16:42 435.215
GOMX 1 29 Jan 08:00:57 08:04:19 17° 87° (E) 08:07:48 467.674
BRITE-PL 29 Jan 08:04:08 08:08:51 27° 91° (E) 08:13:31 437.365/2234.400
CANX-2 29 Jan 08:06:28 08:09:01 16° 90° (E) 08:11:44 2200.000
DOVE 4 29 Jan 08:13:54 08:16:49 16° 87° (E) 08:19:54 437.250
AAUSAT CUBESAT 2 29 Jan 08:19:41 08:21:13 12° 88° (E) 08:22:59 437.432
CUTE 1.7 + AOD 2 29 Jan 08:29:53 08:33:26 26° 94° (E) 08:37:02 437.475
VERMONT LUNAR 29 Jan 08:34:12 08:37:01 23° 155° (SSE) 08:39:52 437.305
SEEDS 29 Jan 09:00:16 09:04:21 49° 99° (E) 09:08:24 437.485
ANTELSAT 29 Jan 09:01:04 09:04:30 21° 66° (ENE) 09:08:04 437.575/2403.000
UKube-1 29 Jan 09:08:11 09:09:30 11° 88° (E) 09:11:05 .
TIGRISAT 29 Jan 09:08:31 09:12:14 24° 67° (ENE) 09:16:02 435.000
HO-68 29 Jan 09:11:09 09:18:20 72° 104° (ESE) 09:25:29 435.675
CUBEBUG 2 29 Jan 09:13:45 09:16:51 18° 90° (E) 09:20:00 437.445
NANOSAT C BR1 29 Jan 09:20:11 09:23:00 18° 66° (ENE) 09:25:57 145.865
ZACube-1 29 Jan 09:21:56 09:24:24 15° 89° (E) 09:27:01 437.345
COMPASS 1 29 Jan 09:26:49 09:31:01 83° 101° (E) 09:35:10 437.405
DX 1 29 Jan 09:27:24 09:30:37 20° 93° (E) 09:33:56 434.975-435.025
PHONESAT 2.4 29 Jan 09:32:22 09:35:37 32° 159° (SSE) 09:38:54 2401.200-2431.200
FUNcube-1 29 Jan 09:33:21 09:36:32 20° 91° (E) 09:39:46 145.935
QB50P2 29 Jan 09:33:45 09:37:13 25° 68° (ENE) 09:40:46 145.880/145.840
CINEMA 3 29 Jan 09:37:09 09:41:57 56° 99° (E) 09:46:31 145.822/145.860
GOMX 1 29 Jan 09:37:35 09:43:00 63° 286° (WNW) 09:48:08 467.674
CANX-2 29 Jan 09:41:14 09:45:16 43° 287° (WNW) 09:49:15 2200.000
BRITE-PL 29 Jan 09:42:09 09:47:33 44° 290° (WNW) 09:52:42 437.365/2234.400
QB50P1 29 Jan 09:42:47 09:46:31 30° 69° (ENE) 09:50:18 145.935-145.965
DELFI C3 29 Jan 09:48:34 09:52:29 47° 99° (E) 09:56:24 145.870
DOVE 4 29 Jan 09:50:00 09:55:13 64° 285° (WNW) 10:00:07 437.250
AISAT 29 Jan 09:52:25 09:54:52 15° 90° (E) 09:57:30 437.250
UWE-3 29 Jan 09:53:02 09:57:16 39° 97° (E) 10:01:24 435.000/436.395/437.385
AAUSAT CUBESAT 2 29 Jan 09:53:15 09:57:20 56° 286° (WNW) 10:01:22 437.432
BUGSAT 1 29 Jan 09:54:45 09:58:19 30° 70° (ENE) 10:01:59 437.445
POLYITAN 1 29 Jan 09:57:09 10:01:14 43° 72° (ENE) 10:05:22 437.675
UNISAT 6 29 Jan 10:00:14 10:04:58 80° 75° (ENE) 10:09:41 437.425
RS-15 29 Jan 10:00:21 10:08:23 22° 2° (N) 10:16:38 29.354- 29.394
CUTE 1.7 + AOD 2 29 Jan 10:05:46 10:09:22 26° 291° (WNW) 10:12:52 437.475
Oscar 11 29 Jan 10:06:29 10:10:49 86° 284° (WNW) 10:15:07 145.826/435.025
VERMONT LUNAR 29 Jan 10:11:22 10:14:48 59° 171° (S) 10:18:16 437.305
POPSAT HIP 1 29 Jan 10:16:59 10:21:14 72° 76° (ENE) 10:25:34 437.405
AIST 1 29 Jan 10:17:41 10:19:05 12° 85° (E) 10:20:44
VELOX 1 29 Jan 10:19:38 10:23:28 28° 95° (E) 10:27:21 145.980
DUCHIFAT 1 29 Jan 10:19:39 10:23:54 76° 76° (ENE) 10:28:12 145.980
CUBEBUG 1 29 Jan 10:29:02 10:31:24 15° 89° (E) 10:33:59 437.445
50 SAT 29 Jan 10:35:46 10:39:33 37° 97° (E) 10:43:18 437.505
ANTELSAT 29 Jan 10:36:33 10:41:04 44° 262° (W) 10:45:33 437.575/2403.000
SO-50 29 Jan 10:36:47 10:41:21 80° 122° (ESE) 10:46:05 436.795
SEEDS 29 Jan 10:37:19 10:39:50 15° 294° (WNW) 10:42:12 437.485
AIST 2 29 Jan 10:39:34 10:42:37 19° 42° (NE) 10:45:44 435.215
UKube-1 29 Jan 10:41:52 10:46:12 66° 286° (WNW) 10:50:32 .
BEESAT 2 29 Jan 10:43:13 10:47:08 38° 50° (NE) 10:51:02 435.950
TIGRISAT 29 Jan 10:44:26 10:48:50 37° 263° (W) 10:53:11 435.000
CUBEBUG 2 29 Jan 10:49:29 10:53:51 43° 288° (WNW) 10:58:03 437.445
NANOSAT C BR1 29 Jan 10:54:30 10:58:35 43° 262° (W) 11:02:42 145.865
ZACube-1 29 Jan 10:56:52 11:01:11 50° 287° (WNW) 11:05:22 437.345
BEESAT 3 29 Jan 10:57:11 11:01:19 59° 55° (NE) 11:05:22 437.485
HUMSAT D 29 Jan 10:59:26 11:03:42 84° 284° (WNW) 11:07:53 437.325/437.525
HO-68 29 Jan 10:59:56 11:05:29 24° 302° (WNW) 11:10:50 435.675
DX 1 29 Jan 11:02:56 11:07:02 38° 290° (WNW) 11:11:05 434.975-435.025
FUNcube-1 29 Jan 11:08:59 11:13:06 38° 289° (WNW) 11:17:05 145.935
QB50P2 29 Jan 11:09:15 11:13:03 30° 265° (W) 11:16:50 145.880/145.840
PHONESAT 2.4 29 Jan 11:10:20 11:13:57 67° 175° (S) 11:17:34 2401.200-2431.200
CINEMA 3 29 Jan 11:15:30 11:18:42 17° 296° (WNW) 11:21:40 145.822/145.860
QB50P1 29 Jan 11:18:55 11:22:27 24° 266° (W) 11:25:55 145.935-145.965
Oscar 19 29 Jan 11:21:32 11:23:41 13° 60° (ENE) 11:26:06 437.125/150
DELFI C3 29 Jan 11:25:04 11:27:24 15° 294° (WNW) 11:29:34 145.870
AISAT 29 Jan 11:27:28 11:31:54 54° 287° (WNW) 11:36:18 437.250
UWE-3 29 Jan 11:30:12 11:33:35 21° 294° (WNW) 11:36:47 435.000/436.395/437.385
ESTCUBE 1 29 Jan 11:30:20 11:34:52 71° 102° (ESE) 11:39:24 437.505/2401.250
BUGSAT 1 29 Jan 11:30:37 11:33:53 22° 267° (W) 11:37:07 437.445
POLYITAN 1 29 Jan 11:34:34 11:37:27 17° 269° (W) 11:40:12 437.675
UNISAT 6 29 Jan 11:41:14 11:42:26 11° 274° (W) 11:43:18 437.425
SPROUT 29 Jan 11:49:17 11:52:55 26° 94° (E) 11:56:35 437.525
VERMONT LUNAR 29 Jan 11:49:20 11:52:49 63° 188° (S) 11:56:18 437.305
AIST 1 29 Jan 11:52:07 11:56:18 56° 280° (W) 12:00:31
VELOX 1 29 Jan 11:56:07 12:00:02 29° 291° (WNW) 12:03:52 145.980
POPSAT HIP 1 29 Jan 11:57:24 11:57:46 10° 273° (W) 11:57:51 437.405
CUBEBUG 1 29 Jan 12:03:50 12:08:12 54° 287° (WNW) 12:12:32 437.445
GONETS M04 29 Jan 12:05:58 12:14:24 53° 75° (ENE) 12:22:52
50 SAT 29 Jan 12:11:38 12:14:27 18° 293° (WNW) 12:17:07 437.505
RS-15 29 Jan 12:14:59 12:25:09 38° 35° (NE) 12:35:53 29.354- 29.394
AIST 2 29 Jan 12:17:24 12:21:38 56° 241° (WSW) 12:25:45 435.215
SO-50 29 Jan 12:19:23 12:22:34 17° 323° (NW) 12:25:41 436.795
BEESAT 2 29 Jan 12:21:56 12:25:10 21° 247° (WSW) 12:28:16 435.950
TISAT 1 29 Jan 12:25:41 12:29:58 63° 101° (E) 12:34:13 437.305
Gurwin Techsat 1B 29 Jan 12:34:30 12:37:26 16° 61° (ENE) 12:40:34 435.225
BEESAT 3 29 Jan 12:36:55 12:39:01 13° 250° (WSW) 12:40:57 437.485
PHONESAT 2.4 29 Jan 12:48:50 12:52:25 55° 192° (SSW) 12:55:59 2401.200-2431.200
SWISSCUBE 29 Jan 12:53:43 12:57:17 21° 92° (E) 13:00:58 437.505
PCSat 29 Jan 12:54:06 12:59:11 40° 52° (NE) 13:04:17 145.827
Oscar 19 29 Jan 12:57:11 13:02:24 88° 256° (WSW) 13:07:38 437.125/150
BEESAT 29 Jan 13:09:08 13:13:12 28° 95° (E) 13:17:19 436.000
ESTCUBE 1 29 Jan 13:09:09 13:11:15 13° 297° (WNW) 13:13:08 437.505/2401.250
ITUPSAT 1 29 Jan 13:13:02 13:17:12 30° 95° (E) 13:21:26 437.325
ITAMSAT 1 29 Jan 13:13:50 13:18:46 48° 71° (ENE) 13:23:47 435.822/435.867
SPROUT 29 Jan 13:25:14 13:29:01 29° 291° (WNW) 13:32:44 437.525
VERMONT LUNAR 29 Jan 13:27:38 13:30:39 27° 204° (SSW) 13:33:40 437.305
CUSAT 1 29 Jan 13:43:24 13:46:06 13° 53° (NE) 13:48:48 437.405
TISAT 1 29 Jan 14:03:17 14:05:20 13° 296° (WNW) 14:07:11 437.305
GONETS M04 29 Jan 14:03:21 14:10:58 34° 274° (W) 14:18:22
Gurwin Techsat 1B 29 Jan 14:11:32 14:16:50 76° 257° (WSW) 14:22:12 435.225
HORYU 2 29 Jan 14:15:52 14:20:02 38° 70° (ENE) 14:24:14 437.375
AO-7 29 Jan 14:25:24 14:33:01 42° 61° (ENE) 14:40:44 29.400- 29.500
RS-15 29 Jan 14:27:25 14:38:48 78° 240° (WSW) 14:50:40 29.354- 29.394
PHONESAT 2.4 29 Jan 14:27:49 14:30:36 20° 207° (SSW) 14:33:21 2401.200-2431.200
SWISSCUBE 29 Jan 14:30:52 14:35:23 42° 289° (WNW) 14:39:51 437.505
PCSat 29 Jan 14:37:45 14:42:31 31° 250° (WSW) 14:47:10 145.827
Oscar 19 29 Jan 14:41:42 14:42:37 10° 275° (W) 14:43:09 437.125/150
BEESAT 29 Jan 14:46:50 14:51:06 32° 291° (WNW) 14:55:17 436.000
JAS-2 29 Jan 14:48:12 14:51:24 17° 63° (ENE) 14:54:43 435.910
ITUPSAT 1 29 Jan 14:50:54 14:55:05 30° 292° (WNW) 14:59:13 437.325
ITAMSAT 1 29 Jan 14:54:39 14:58:36 21° 268° (W) 15:02:25 435.822/435.867
DANDE 29 Jan 14:56:18 15:02:49 45° 70° (ENE) 15:07:45 436.750
STARS 29 Jan 14:56:51 15:01:10 48° 99° (E) 15:05:27 437.465
KKS-1 29 Jan 15:03:35 15:08:07 87° 106° (ESE) 15:12:36 437.445
M-CUBED/EXP-1 PRIME 29 Jan 15:22:04 15:24:57 27° 102° (ESE) 15:27:56 437.505
CUSAT 1 29 Jan 15:24:22 15:30:45 90° 223° (SW) 15:35:23 437.405
